Location: Weatherford
(35.5260°N, 98.7070°W)
Time: 13:00:35
(UTC-05:00)

Amateur Radio Satellites - All Passes

Search period start: 30 August 2015 12:30
Search period end: 31 August 2015 12:30
Location: Weatherford, 35.5260°N, 98.7070°W

Satellite Date Start Highest point End Downlink Frequencies (MHz)
Time Altitude Azimuth
50 SAT 30 Aug 12:33:18 12:37:12 82° 102° (ESE) 12:41:01 437.505
VELOX 1 30 Aug 12:33:48 12:38:14 62° 101° (E) 12:42:39 145.980
PHONESAT 2.4 30 Aug 12:34:57 12:38:17 54° 207° (SSW) 12:41:37 2401.200-2431.200
CUBEBUG 2 30 Aug 12:35:42 12:36:56 11° 295° (WNW) 12:37:52 437.445
ZACube-1 30 Aug 12:41:58 12:44:26 14° 293° (WNW) 12:46:41 437.345
CUSAT 1 30 Aug 12:45:57 12:53:41 62° 265° (W) 13:01:43 437.405
UWE-3 30 Aug 12:46:42 12:47:25 10° 295° (WNW) 12:47:50 435.000/436.395/437.385
POLYITAN 1 30 Aug 12:46:57 12:50:40 28° 264° (W) 12:54:21 437.675
FUNcube-1 30 Aug 12:48:34 12:50:34 12° 293° (WNW) 12:52:19 145.935
POPSAT HIP 1 30 Aug 12:50:21 12:53:58 26° 265° (W) 12:57:33 437.405
DUCHIFAT 1 30 Aug 12:52:23 12:55:58 26° 265° (W) 12:59:30 145.980
DANDE 30 Aug 13:01:12 13:08:48 68° 264° (W) 13:17:14 436.750
BUGSAT 1 30 Aug 13:07:26 13:10:55 27° 264° (W) 13:14:22 437.445
QB50P2 30 Aug 13:07:54 13:10:41 16° 268° (W) 13:13:19 145.880/145.840
NANOSAT C BR1 30 Aug 13:10:18 13:13:02 16° 268° (W) 13:15:37 145.865
ESTCUBE 1 30 Aug 13:22:11 13:26:32 49° 286° (WNW) 13:30:51 437.505/2401.250
TISAT 1 30 Aug 13:24:37 13:27:52 21° 94° (E) 13:31:12 437.305
QB50P1 30 Aug 13:24:54 13:26:11 11° 270° (W) 13:27:12 145.935-145.965
DX 1 30 Aug 13:27:03 13:30:19 20° 291° (WNW) 13:33:28 434.975-435.025
AISAT 30 Aug 13:42:19 13:45:48 22° 290° (WNW) 13:49:08 437.250
UKube-1 30 Aug 13:42:53 13:45:28 15° 292° (WNW) 13:47:52 .
CUBEBUG 1 30 Aug 13:47:36 13:51:29 30° 288° (WNW) 13:55:20 437.445
SPROUT 30 Aug 13:49:01 13:53:23 82° 100° (E) 13:57:43 437.525
PCSat 30 Aug 13:52:51 13:56:57 22° 253° (WSW) 14:00:54 145.827
Oscar 19 30 Aug 14:00:25 14:05:27 58° 74° (ENE) 14:10:34 437.125/150
VELOX 1 30 Aug 14:12:54 14:14:18 11° 294° (WNW) 14:15:27 145.980
Gurwin Techsat 1B 30 Aug 14:29:06 14:33:45 33° 70° (ENE) 14:38:29 435.225
ITUPSAT 1 30 Aug 14:30:53 14:34:08 19° 93° (E) 14:37:33 437.325
JUGNU 30 Aug 14:34:14 14:37:08 14° 171° (S) 14:40:06 437.505
DANDE 30 Aug 14:49:01 14:51:16 11° 275° (W) 14:52:47 436.750
JAS-2 30 Aug 14:52:15 14:58:50 35° 67° (ENE) 15:05:47 435.910
GONETS M04 30 Aug 14:55:05 15:03:47 62° 80° (E) 15:12:31
ITAMSAT 1 30 Aug 14:55:54 15:00:51 49° 73° (ENE) 15:05:51 435.822/435.867
Cosmos 2499 30 Aug 14:58:26 15:02:45 15° 61° (ENE) 15:07:31 435.465 / 435.565
TISAT 1 30 Aug 14:59:59 15:03:36 27° 289° (WNW) 15:07:09 437.305
BEESAT 30 Aug 15:04:09 15:08:42 44° 99° (E) 15:13:15 436.000
AO-7 30 Aug 15:19:50 15:26:22 28° 61° (ENE) 15:33:09 29.400- 29.500
SWISSCUBE 30 Aug 15:29:42 15:34:29 86° 282° (WNW) 15:39:14 437.505
SRMSAT 30 Aug 15:42:18 15:43:59 11° 167° (SSE) 15:45:46 437.500
Oscar 19 30 Aug 15:42:30 15:45:17 14° 270° (W) 15:47:46 437.125/150
RS-15 30 Aug 15:45:31 15:53:41 27° 105° (ESE) 16:02:31 29.354- 29.394
BEESAT 3 30 Aug 15:46:22 15:50:16 50° 116° (ESE) 15:54:13 437.485
BEESAT 2 30 Aug 15:56:09 16:00:03 47° 116° (ESE) 16:04:02 435.950
ITUPSAT 1 30 Aug 16:07:46 16:12:11 38° 288° (WNW) 16:16:32 437.325
Gurwin Techsat 1B 30 Aug 16:09:17 16:13:46 27° 265° (W) 16:18:09 435.225
ISS 30 Aug 16:18:07 16:20:38 20° 31° (NNE) 16:23:09 145.825
JUGNU 30 Aug 16:21:46 16:25:25 17° 181° (S) 16:29:04 437.505
AIST 2 30 Aug 16:23:23 16:26:05 17° 111° (ESE) 16:28:55 435.215
STARS 30 Aug 16:25:17 16:29:10 29° 97° (E) 16:33:03 437.465
JAS-2 30 Aug 16:36:24 16:43:37 47° 263° (W) 16:51:07 435.910
ITAMSAT 1 30 Aug 16:37:17 16:40:41 17° 268° (W) 16:43:50 435.822/435.867
KKS-1 30 Aug 16:39:39 16:44:10 79° 103° (ESE) 16:48:39 437.445
BEESAT 30 Aug 16:43:08 16:46:13 17° 293° (WNW) 16:49:06 436.000
MOZHAYETS 4 30 Aug 16:44:44 16:44:57 10° 89° (E) 16:45:29
HORYU 2 30 Aug 16:45:53 16:50:22 80° 76° (ENE) 16:54:53 437.375
Cosmos 2499 30 Aug 16:48:48 16:57:32 86° 83° (E) 17:05:36 435.465 / 435.565
GONETS M04 30 Aug 16:53:13 17:00:04 25° 276° (W) 17:06:33
AO-7 30 Aug 17:10:25 17:18:41 63° 257° (WSW) 17:26:56 29.400- 29.500
BEESAT 3 30 Aug 17:26:13 17:28:31 14° 313° (NW) 17:30:41 437.485
SRMSAT 30 Aug 17:28:49 17:32:25 17° 177° (S) 17:36:02 437.500
BEESAT 2 30 Aug 17:35:53 17:38:23 15° 312° (NW) 17:40:45 435.950
ISS 30 Aug 17:54:06 17:57:08 37° 227° (SW) 18:00:10 145.825
RS-15 30 Aug 17:54:16 18:05:10 72° 303° (WNW) 18:16:29 29.354- 29.394
AIST 2 30 Aug 18:00:25 18:04:23 37° 305° (NW) 18:08:21 435.215
STARS 30 Aug 18:02:00 18:05:26 22° 291° (WNW) 18:08:45 437.465
Cubesat XI-IV 30 Aug 18:04:31 18:08:18 21° 67° (ENE) 18:12:15 437.490
JUGNU 30 Aug 18:11:06 18:13:42 13° 191° (S) 18:16:14 437.505
MOZHAYETS 4 30 Aug 18:18:09 18:22:40 62° 284° (WNW) 18:27:09
CUBESAT XI-V 30 Aug 18:32:42 18:34:52 14° 90° (E) 18:37:19 437.345
Cosmos 2499 30 Aug 18:44:42 18:49:35 16° 280° (W) 18:53:45 435.465 / 435.565
CUTE-I 30 Aug 18:48:21 18:53:31 54° 73° (ENE) 18:58:42 437.470
SRMSAT 30 Aug 19:17:29 19:20:52 15° 187° (S) 19:24:12 437.500
STRAND 1 30 Aug 19:26:43 19:28:59 13° 90° (E) 19:31:32 437.568
AIST 1 30 Aug 19:39:50 19:43:12 22° 75° (ENE) 19:46:40
Cubesat XI-IV 30 Aug 19:43:03 19:48:08 44° 261° (W) 19:53:11 437.490
O/OREOS (USA 219) 30 Aug 19:44:55 19:49:15 49° 106° (ESE) 19:53:40 437.305
HO-68 30 Aug 19:55:38 20:00:31 21° 62° (ENE) 20:05:41 435.675
BRITE-PL 30 Aug 20:02:19 20:06:19 40° 73° (ENE) 20:10:37 437.365/2234.400
CUBESAT XI-V 30 Aug 20:08:09 20:12:39 49° 285° (WNW) 20:17:07 437.345
RS-15 30 Aug 20:12:00 20:20:14 22° 331° (NNW) 20:28:21 29.354- 29.394
CUTE-I 30 Aug 20:30:43 20:34:00 16° 269° (W) 20:37:00 437.470
GOMX 1 30 Aug 20:37:34 20:41:53 58° 75° (ENE) 20:46:33 467.674
CUTE 1.7 + AOD 2 30 Aug 20:41:03 20:44:28 24° 71° (ENE) 20:47:58 437.475
CANX-2 30 Aug 20:54:14 20:58:12 38° 74° (ENE) 21:02:13 2200.000
DOVE 4 30 Aug 20:57:22 21:01:45 56° 75° (ENE) 21:06:29 437.250
STRAND 1 30 Aug 21:03:37 21:08:39 60° 286° (WNW) 21:13:40 437.568
Cosmos 2491 30 Aug 21:04:53 21:13:31 61° 79° (E) 21:22:12 435.465 / 435.565
PRISM 30 Aug 21:08:27 21:12:30 61° 285° (WNW) 21:16:33 437.425
YUBILEINY 30 Aug 21:10:05 21:17:18 31° 86° (E) 21:24:49 435.215
AIST 1 30 Aug 21:17:16 21:20:49 24° 269° (W) 21:24:16
SEEDS 30 Aug 21:17:51 21:21:58 51° 75° (ENE) 21:26:07 437.485
Oscar 11 30 Aug 21:18:30 21:20:49 15° 68° (ENE) 21:23:21 145.826/435.025
O/OREOS (USA 219) 30 Aug 21:26:25 21:29:03 15° 304° (WNW) 21:31:30 437.305
HO-68 30 Aug 21:40:32 21:47:40 69° 257° (WSW) 21:54:50 435.675
COMPASS 1 30 Aug 21:41:48 21:46:00 79° 77° (ENE) 21:50:13 437.405
BRITE-PL 30 Aug 21:42:47 21:45:13 14° 271° (W) 21:47:30 437.365/2234.400
CUBEBUG 2 30 Aug 21:51:03 21:55:19 40° 73° (ENE) 21:59:45 437.445
CINEMA 3 30 Aug 21:51:54 21:56:31 86° 258° (WSW) 22:01:22 145.822/145.860
AAUSAT CUBESAT 2 30 Aug 21:53:07 21:57:20 89° 40° (NE) 22:01:32 437.432
ZACube-1 30 Aug 21:57:11 22:00:56 27° 71° (ENE) 22:04:48 437.345
UWE-3 30 Aug 22:00:42 22:04:55 39° 73° (ENE) 22:09:17 435.000/436.395/437.385
FUNcube-1 30 Aug 22:02:59 22:06:53 30° 72° (ENE) 22:10:54 145.935
CUTE 1.7 + AOD 2 30 Aug 22:16:47 22:20:19 24° 266° (W) 22:23:46 437.475
GOMX 1 30 Aug 22:19:33 22:20:38 10° 273° (W) 22:21:24 467.674
DELFI C3 30 Aug 22:26:08 22:30:05 56° 76° (ENE) 22:34:04 145.870
CANX-2 30 Aug 22:31:46 22:34:19 15° 269° (W) 22:36:41 2200.000
RS-15 30 Aug 22:34:05 22:39:03 13° 6° (N) 22:44:15 29.354- 29.394
DOVE 4 30 Aug 22:38:20 22:40:04 12° 273° (W) 22:41:32 437.250
DX 1 30 Aug 22:43:50 22:46:50 19° 69° (ENE) 22:49:58 434.975-435.025
HUMSAT D 30 Aug 22:51:55 22:55:57 40° 74° (ENE) 23:00:02 437.325/437.525
Oscar 11 30 Aug 22:52:32 22:56:41 42° 262° (W) 23:00:49 145.826/435.025
Cosmos 2504 30 Aug 22:56:33 23:01:13 18° 81° (E) 23:06:33 435.465 / 435.565
SEEDS 30 Aug 22:56:55 22:58:08 11° 270° (W) 22:59:02 437.485
UKube-1 30 Aug 22:57:51 23:01:17 24° 70° (ENE) 23:04:50 .
AISAT 30 Aug 23:01:01 23:04:04 19° 69° (ENE) 23:07:16 437.250
Cosmos 2491 30 Aug 23:03:01 23:09:50 25° 275° (W) 23:16:19 435.465 / 435.565
YUBILEINY 30 Aug 23:05:20 23:13:48 50° 283° (WNW) 23:22:18 435.215
CUBEBUG 1 30 Aug 23:06:52 23:08:26 12° 67° (ENE) 23:10:14 437.445
UNISAT 6 30 Aug 23:13:02 23:16:12 19° 92° (E) 23:19:26 437.425
50 SAT 30 Aug 23:13:52 23:17:14 28° 73° (ENE) 23:20:41 437.505
M-CUBED/EXP-1 PRIME 30 Aug 23:18:20 23:19:48 12° 94° (E) 23:21:24 437.505
VELOX 1 30 Aug 23:28:30 23:32:32 37° 72° (ENE) 23:36:36 145.980
CUBEBUG 2 30 Aug 23:29:06 23:32:13 17° 269° (W) 23:35:11 437.445
ZACube-1 30 Aug 23:33:28 23:37:13 25° 266° (W) 23:40:57 437.345
QB50P1 30 Aug 23:36:43 23:37:24 10° 89° (E) 23:38:24 145.935-145.965
UWE-3 30 Aug 23:38:33 23:41:38 17° 269° (W) 23:44:35 435.000/436.395/437.385
FUNcube-1 30 Aug 23:39:40 23:43:13 22° 267° (W) 23:46:42 145.935
TIGRISAT 30 Aug 23:41:16 23:45:31 38° 98° (E) 23:49:41 435.000
ANTELSAT 30 Aug 23:57:38 00:02:11 63° 100° (E) 00:06:36 437.575/2403.000
BEESAT 3 31 Aug 00:08:48 00:10:48 14° 47° (NE) 00:12:55 437.485
CUSAT 1 31 Aug 00:10:32 00:12:26 14° 83° (E) 00:14:48 437.405
TISAT 1 31 Aug 00:15:45 00:17:03 12° 67° (ENE) 00:18:35 437.305
ESTCUBE 1 31 Aug 00:18:25 00:22:54 78° 258° (WSW) 00:27:25 437.505/2401.250
DX 1 31 Aug 00:19:00 00:22:53 32° 263° (W) 00:26:45 434.975-435.025
BEESAT 2 31 Aug 00:19:14 00:21:09 13° 46° (NE) 00:23:13 435.950
HUMSAT D 31 Aug 00:29:25 00:31:53 14° 269° (W) 00:34:10 437.325/437.525
DANDE 31 Aug 00:31:21 00:32:18 11° 83° (E) 00:33:33 436.750
UKube-1 31 Aug 00:33:49 00:37:21 24° 264° (W) 00:40:50 .
POLYITAN 1 31 Aug 00:34:34 00:38:50 57° 101° (E) 00:43:02 437.675
AISAT 31 Aug 00:36:27 00:40:26 33° 263° (W) 00:44:24 437.250
POPSAT HIP 1 31 Aug 00:37:37 00:41:53 60° 100° (E) 00:46:07 437.405
DUCHIFAT 1 31 Aug 00:39:06 00:43:21 60° 100° (E) 00:47:34 145.980
SPROUT 31 Aug 00:40:07 00:44:08 41° 73° (ENE) 00:48:12 437.525
CUBEBUG 1 31 Aug 00:40:10 00:44:23 52° 260° (W) 00:48:37 437.445
Cosmos 2504 31 Aug 00:44:28 00:52:28 80° 277° (W) 01:01:02 435.465 / 435.565
AUBIESAT-1 31 Aug 00:46:52 00:50:40 50° 291° (WNW) 00:54:09 437.475
RS-15 31 Aug 00:47:09 00:57:05 31° 40° (NE) 01:07:37 29.354- 29.394
UNISAT 6 31 Aug 00:48:57 00:53:05 33° 288° (WNW) 00:57:04 437.425
50 SAT 31 Aug 00:49:04 00:51:48 17° 267° (W) 00:54:25 437.505
SO-50 31 Aug 00:49:32 00:51:27 13° 108° (ESE) 00:53:40 436.795
M-CUBED/EXP-1 PRIME 31 Aug 00:51:14 00:54:55 37° 292° (WNW) 00:58:18 437.505
BUGSAT 1 31 Aug 00:51:40 00:55:49 51° 100° (E) 00:59:59 437.445
QB50P2 31 Aug 00:54:16 00:58:34 80° 285° (WNW) 01:02:51 145.880/145.840
NANOSAT C BR1 31 Aug 00:56:10 01:00:28 81° 283° (WNW) 01:04:44 145.865
VELOX 1 31 Aug 01:06:23 01:09:15 16° 268° (W) 01:11:56 145.980
QB50P1 31 Aug 01:09:27 01:13:40 54° 285° (WNW) 01:17:50 145.935-145.965
TIGRISAT 31 Aug 01:18:53 01:21:58 17° 292° (WNW) 01:24:50 435.000
ITUPSAT 1 31 Aug 01:35:29 01:38:22 17° 67° (ENE) 01:41:26 437.325
ANTELSAT 31 Aug 01:37:00 01:38:26 11° 295° (WNW) 01:39:36 437.575/2403.000
BEESAT 3 31 Aug 01:45:09 01:49:04 50° 244° (WSW) 01:52:53 437.485
TISAT 1 31 Aug 01:48:18 01:52:24 52° 261° (W) 01:56:31 437.305
CUSAT 1 31 Aug 01:51:10 01:54:26 29° 289° (WNW) 01:58:33 437.405
BEESAT 2 31 Aug 01:55:36 01:59:33 53° 244° (WSW) 02:03:25 435.950
GONETS M04 31 Aug 02:02:42 02:04:53 12° 79° (E) 02:07:53
BEESAT 31 Aug 02:07:45 02:12:05 37° 72° (ENE) 02:16:29 436.000
DANDE 31 Aug 02:12:04 02:14:54 25° 290° (WNW) 02:18:21 436.750
POLYITAN 1 31 Aug 02:12:54 02:14:16 11° 293° (WNW) 02:15:23 437.675
Oscar 19 31 Aug 02:15:35 02:19:51 26° 95° (E) 02:24:13 437.125/150
POPSAT HIP 1 31 Aug 02:16:20 02:17:16 10° 294° (WNW) 02:17:57 437.405
DUCHIFAT 1 31 Aug 02:17:48 02:18:41 10° 294° (WNW) 02:19:16 145.980
SPROUT 31 Aug 02:18:05 02:20:26 14° 269° (W) 02:22:36 437.525
AIST 2 31 Aug 02:24:34 02:28:40 54° 58° (ENE) 02:32:40 435.215
SO-50 31 Aug 02:26:46 02:31:29 62° 302° (WNW) 02:36:22 436.795
BUGSAT 1 31 Aug 02:29:06 02:30:53 12° 293° (WNW) 02:32:27 437.445
SWISSCUBE 31 Aug 02:33:04 02:37:50 77° 76° (ENE) 02:42:37 437.505
Cosmos 2504 31 Aug 02:42:21 02:46:25 13° 299° (WNW) 02:49:53 435.465 / 435.565
PCSat 31 Aug 02:46:53 02:52:17 76° 114° (ESE) 02:57:43 145.827
Gurwin Techsat 1B 31 Aug 02:49:15 02:52:24 16° 91° (E) 02:55:47 435.225
RS-15 31 Aug 02:59:06 03:11:05 82° 243° (WSW) 03:23:21 29.354- 29.394
ITUPSAT 1 31 Aug 03:11:20 03:15:56 45° 261° (W) 03:20:30 437.325
ITAMSAT 1 31 Aug 03:12:26 03:16:21 22° 94° (E) 03:20:24 435.822/435.867
VERMONT LUNAR 31 Aug 03:17:22 03:18:48 13° 144° (SE) 03:20:17 437.305
STARS 31 Aug 03:19:57 03:22:58 19° 69° (ENE) 03:26:08 437.465
Cosmos 2499 31 Aug 03:33:56 03:36:18 12° 78° (ENE) 03:39:31 435.465 / 435.565
KKS-1 31 Aug 03:34:44 03:39:00 48° 73° (ENE) 03:43:19 437.445
BEESAT 31 Aug 03:46:34 03:50:04 19° 267° (W) 03:53:25 436.000
JAS-2 31 Aug 03:50:53 03:56:57 34° 93° (E) 04:02:29 435.910
GONETS M04 31 Aug 03:51:53 04:00:32 78° 95° (E) 04:09:15
Oscar 19 31 Aug 03:54:37 03:59:14 32° 290° (WNW) 04:03:45 437.125/150
AIST 2 31 Aug 04:05:37 04:06:47 11° 251° (WSW) 04:07:41 435.215
Gurwin Techsat 1B 31 Aug 04:27:35 04:32:45 52° 287° (WNW) 04:37:53 435.225
PCSat 31 Aug 04:33:11 04:36:23 15° 313° (NW) 04:39:22 145.827
HORYU 2 31 Aug 04:41:05 04:44:12 19° 93° (E) 04:47:26 437.375
ITAMSAT 1 31 Aug 04:51:12 04:55:59 38° 289° (WNW) 05:00:43 435.822/435.867
VERMONT LUNAR 31 Aug 04:51:56 04:54:56 84° 153° (SSE) 04:57:54 437.305
STARS 31 Aug 04:55:10 04:59:11 34° 263° (W) 05:03:11 437.465
KKS-1 31 Aug 05:13:48 05:15:57 13° 269° (W) 05:17:51 437.445
RS-15 31 Aug 05:14:53 05:22:17 17° 258° (WSW) 05:28:44 29.354- 29.394
AO-7 31 Aug 05:15:22 05:23:28 56° 102° (ESE) 05:31:33 29.400- 29.500
MOZHAYETS 4 31 Aug 05:16:39 05:21:17 86° 77° (ENE) 05:25:54
PHONESAT 2.4 31 Aug 05:19:21 05:20:42 12° 143° (SE) 05:22:09 2401.200-2431.200
Cosmos 2499 31 Aug 05:19:51 05:28:09 77° 94° (E) 05:36:59 435.465 / 435.565
JAS-2 31 Aug 05:35:45 05:42:03 36° 293° (WNW) 05:47:36 435.910
GONETS M04 31 Aug 05:52:27 05:58:30 19° 295° (WNW) 06:04:06
O/OREOS (USA 219) 31 Aug 05:57:44 06:02:18 58° 68° (ENE) 06:06:49 437.305
HORYU 2 31 Aug 06:16:55 06:20:56 33° 288° (WNW) 06:24:51 437.375
VERMONT LUNAR 31 Aug 06:28:48 06:31:32 32° 353° (N) 06:34:16 437.305
STRAND 1 31 Aug 06:39:54 06:42:41 15° 66° (ENE) 06:45:43 437.568
PHONESAT 2.4 31 Aug 06:54:49 06:58:12 70° 155° (SSE) 07:01:36 2401.200-2431.200
CUBESAT XI-V 31 Aug 07:08:11 07:12:46 73° 259° (W) 07:17:23 437.345
AO-7 31 Aug 07:08:53 07:15:54 31° 298° (WNW) 07:22:41 29.400- 29.500
CUTE-I 31 Aug 07:08:55 07:13:22 28° 95° (E) 07:17:56 437.470
Cosmos 2499 31 Aug 07:16:14 07:22:27 21° 295° (WNW) 07:28:24 435.465 / 435.565
YUBILEINY 31 Aug 07:26:24 07:28:51 12° 59° (ENE) 07:32:05 435.215
O/OREOS (USA 219) 31 Aug 07:39:52 07:41:16 11° 260° (W) 07:42:21 437.305
PRISM 31 Aug 07:55:09 07:59:12 61° 75° (ENE) 08:03:14 437.425
Cubesat XI-IV 31 Aug 08:03:00 08:08:21 86° 284° (WNW) 08:13:42 437.490
VERMONT LUNAR 31 Aug 08:05:35 08:08:21 35° 10° (N) 08:11:07 437.305
AIST 1 31 Aug 08:07:19 08:09:38 15° 88° (E) 08:12:09
BRITE-PL 31 Aug 08:09:40 08:13:50 22° 92° (E) 08:18:14 437.365/2234.400
Cosmos 2491 31 Aug 08:12:45 08:14:48 11° 79° (E) 08:17:41 435.465 / 435.565
STRAND 1 31 Aug 08:16:29 08:21:30 56° 260° (W) 08:26:30 437.568
PHONESAT 2.4 31 Aug 08:33:00 08:36:14 38° 351° (N) 08:39:27 2401.200-2431.200
GOMX 1 31 Aug 08:42:18 08:46:48 26° 93° (E) 08:51:25 467.674
CUTE-I 31 Aug 08:48:46 08:53:28 32° 290° (WNW) 08:58:05 437.470
ISS 31 Aug 08:55:07 08:57:49 25° 132° (SE) 09:00:34 145.825
DOVE 4 31 Aug 08:59:49 09:03:54 23° 92° (E) 09:08:06 437.250
SEEDS 31 Aug 09:07:59 09:08:34 10° 89° (E) 09:09:27 437.485
HO-68 31 Aug 09:12:17 09:18:08 27° 94° (E) 09:24:09 435.675
YUBILEINY 31 Aug 09:18:49 09:27:40 72° 81° (E) 09:36:26 435.215
COMPASS 1 31 Aug 09:29:29 09:31:51 15° 92° (E) 09:34:24 437.405
AAUSAT CUBESAT 2 31 Aug 09:40:04 09:42:44 17° 93° (E) 09:45:31 437.432
VERMONT LUNAR 31 Aug 09:41:56 09:44:53 61° 205° (SSW) 09:47:50 437.305
AIST 1 31 Aug 09:43:07 09:47:01 34° 282° (WNW) 09:50:53
BRITE-PL 31 Aug 09:47:13 09:52:29 45° 287° (WNW) 09:57:51 437.365/2234.400
CUBEBUG 2 31 Aug 09:48:00 09:48:57 11° 88° (E) 09:50:12 437.445
CINEMA 3 31 Aug 09:50:17 09:54:39 31° 95° (E) 09:58:57 145.822/145.860
AUBIESAT-1 31 Aug 09:58:47 10:00:24 12° 61° (ENE) 10:02:17 437.475
Cosmos 2491 31 Aug 10:01:48 10:10:28 78° 95° (E) 10:19:12 435.465 / 435.565
M-CUBED/EXP-1 PRIME 31 Aug 10:02:13 10:04:58 16° 63° (ENE) 10:07:54 437.505
CUTE 1.7 + AOD 2 31 Aug 10:03:59 10:08:12 72° 100° (E) 10:12:23 437.475
UNISAT 6 31 Aug 10:10:04 10:12:13 14° 67° (ENE) 10:14:37 437.425
PHONESAT 2.4 31 Aug 10:11:19 10:14:31 37° 8° (N) 10:17:44 2401.200-2431.200
CANX-2 31 Aug 10:17:54 10:22:07 68° 284° (WNW) 10:26:17 2200.000
GOMX 1 31 Aug 10:19:58 10:24:57 36° 288° (WNW) 10:29:52 467.674
ISS 31 Aug 10:31:24 10:34:12 26° 326° (NW) 10:37:01 145.825
Cosmos 2504 31 Aug 10:35:42 10:42:43 29° 70° (ENE) 10:49:37 435.465 / 435.565
DOVE 4 31 Aug 10:36:50 10:41:45 39° 288° (WNW) 10:46:34 437.250
TIGRISAT 31 Aug 10:37:07 10:40:52 25° 70° (ENE) 10:44:46 435.000
SEEDS 31 Aug 10:40:40 10:44:44 51° 285° (WNW) 10:48:46 437.485
Oscar 11 31 Aug 10:42:44 10:46:48 41° 98° (E) 10:50:52 145.826/435.025
CUSAT 1 31 Aug 10:46:12 10:52:02 23° 68° (ENE) 10:58:25 437.405
ANTELSAT 31 Aug 10:53:18 10:57:38 39° 73° (ENE) 11:02:02 437.575/2403.000
HO-68 31 Aug 10:59:14 11:06:09 50° 291° (WNW) 11:12:59 435.675
SO-50 31 Aug 11:01:13 11:06:02 52° 57° (ENE) 11:10:44 436.795
COMPASS 1 31 Aug 11:03:53 11:07:40 34° 287° (WNW) 11:11:24 437.405
DANDE 31 Aug 11:09:07 11:15:00 24° 70° (ENE) 11:21:40 436.750
AAUSAT CUBESAT 2 31 Aug 11:14:45 11:18:24 31° 287° (WNW) 11:22:00 437.432
YUBILEINY 31 Aug 11:17:31 11:23:43 21° 277° (W) 11:29:27 435.215
CUBEBUG 2 31 Aug 11:21:31 11:26:09 61° 285° (WNW) 11:30:37 437.445
ZACube-1 31 Aug 11:24:16 11:28:47 83° 104° (ESE) 11:33:09 437.345
POLYITAN 1 31 Aug 11:24:48 11:28:27 29° 72° (ENE) 11:32:11 437.675
CINEMA 3 31 Aug 11:27:34 11:31:41 26° 290° (WNW) 11:35:37 145.822/145.860
POPSAT HIP 1 31 Aug 11:27:35 11:31:17 30° 72° (ENE) 11:35:03 437.405
DUCHIFAT 1 31 Aug 11:28:38 11:32:17 30° 72° (ENE) 11:36:01 145.980
UWE-3 31 Aug 11:29:47 11:34:21 64° 284° (WNW) 11:38:44 435.000/436.395/437.385
AUBIESAT-1 31 Aug 11:29:51 11:34:35 73° 254° (WSW) 11:39:17 437.475
FUNcube-1 31 Aug 11:29:57 11:34:27 88° 283° (WNW) 11:38:49 145.935
M-CUBED/EXP-1 PRIME 31 Aug 11:34:37 11:39:19 55° 256° (WSW) 11:44:01 437.505
PCSat 31 Aug 11:38:08 11:42:56 32° 55° (NE) 11:47:48 145.827
BUGSAT 1 31 Aug 11:39:21 11:42:33 23° 71° (ENE) 11:45:50 437.445
DELFI C3 31 Aug 11:42:48 11:46:42 53° 285° (WNW) 11:50:34 145.870
QB50P2 31 Aug 11:43:57 11:48:03 50° 75° (ENE) 11:52:13 145.880/145.840
UNISAT 6 31 Aug 11:43:58 11:48:32 56° 260° (W) 11:53:12 437.425
NANOSAT C BR1 31 Aug 11:45:28 11:49:32 49° 74° (ENE) 11:53:40 145.865
PHONESAT 2.4 31 Aug 11:49:10 11:52:33 74° 205° (SSW) 11:55:57 2401.200-2431.200
QB50P1 31 Aug 11:58:43 12:02:56 74° 77° (ENE) 12:07:12 145.935-145.965
Cosmos 2491 31 Aug 12:02:20 12:08:27 19° 295° (WNW) 12:14:06 435.465 / 435.565
DX 1 31 Aug 12:09:41 12:13:58 52° 100° (E) 12:18:15 434.975-435.025
TIGRISAT 31 Aug 12:13:29 12:17:31 28° 265° (W) 12:21:31 435.000
HUMSAT D 31 Aug 12:14:12 12:18:26 68° 284° (WNW) 12:22:33 437.325/437.525
ESTCUBE 1 31 Aug 12:14:30 12:18:17 27° 96° (E) 12:22:08 437.505/2401.250
Oscar 11 31 Aug 12:20:09 12:22:40 15° 292° (WNW) 12:25:00 145.826/435.025
